TimeCDT,TemperatureF,Dew PointF,Humidity,Sea Level PressureIn,VisibilityMPH,Wind Direction,Wind SpeedMPH,Gust SpeedMPH,PrecipitationIn,Events,Conditions,WindDirDegrees,DateUTC
12:15 AM,67.1,65.3,94,29.89,10.0,Calm,Calm,-,N/A,,Clear,0,2013-08-06 05:15:00
12:35 AM,67.1,65.3,94,29.90,10.0,South,3.5,-,N/A,,Clear,170,2013-08-06 05:35:00
12:55 AM,67.1,65.3,94,29.90,10.0,South,4.6,-,N/A,,Clear,170,2013-08-06 05:55:00
1:15 AM,66.9,65.3,95,29.90,10.0,SSW,3.5,-,N/A,,Clear,200,2013-08-06 06:15:00
1:35 AM,66.7,65.5,96,29.90,7.0,SSW,3.5,-,N/A,,Scattered Clouds,210,2013-08-06 06:35:00
1:55 AM,66.7,65.5,96,29.89,7.0,Calm,Calm,-,N/A,,Mostly Cloudy,0,2013-08-06 06:55:00
2:15 AM,66.4,65.5,97,29.89,7.0,SSW,3.5,-,N/A,,Overcast,210,2013-08-06 07:15:00
2:35 AM,66.2,65.7,98,29.89,5.0,SSW,3.5,-,N/A,,Mostly Cloudy,210,2013-08-06 07:35:00
2:55 AM,66.9,66.2,98,29.88,5.0,SW,3.5,-,N/A,,Overcast,230,2013-08-06 07:55:00
3:15 AM,67.3,66.4,97,29.87,4.0,SW,5.8,-,N/A,,Overcast,220,2013-08-06 08:15:00
3:35 AM,67.3,66.4,97,29.85,4.0,Calm,Calm,-,N/A,,Overcast,0,2013-08-06 08:35:00
3:55 AM,67.3,66.6,98,29.85,3.0,Calm,Calm,-,N/A,,Overcast,0,2013-08-06 08:55:00
4:15 AM,67.3,66.6,98,29.86,4.0,SSW,3.5,-,N/A,,Overcast,200,2013-08-06 09:15:00
4:35 AM,67.3,66.4,97,29.85,4.0,South,4.6,-,N/A,,Overcast,190,2013-08-06 09:35:00
4:55 AM,67.3,66.4,97,29.86,3.0,South,4.6,-,N/A,,Overcast,180,2013-08-06 09:55:00
5:15 AM,67.3,66.4,97,29.87,3.0,South,4.6,-,N/A,,Overcast,180,2013-08-06 10:15:00
5:35 AM,67.1,66.2,97,29.87,3.0,South,3.5,-,N/A,,Overcast,180,2013-08-06 10:35:00
5:55 AM,67.1,66.2,97,29.88,2.5,SSW,3.5,-,N/A,,Overcast,200,2013-08-06 10:55:00
6:15 AM,67.3,66.4,97,29.88,2.0,SSW,3.5,-,N/A,,Overcast,210,2013-08-06 11:15:00
6:35 AM,67.3,66.4,97,29.89,2.0,SSW,4.6,-,N/A,,Overcast,210,2013-08-06 11:35:00
6:55 AM,67.6,66.6,96,29.90,2.0,SSW,4.6,-,N/A,,Overcast,200,2013-08-06 11:55:00
7:15 AM,68.2,66.6,95,29.90,3.0,SSW,8.1,-,N/A,,Overcast,200,2013-08-06 12:15:00
7:35 AM,68.4,66.7,95,29.90,3.0,SSW,6.9,-,N/A,,Overcast,210,2013-08-06 12:35:00
8:15 AM,70.2,67.5,91,29.90,4.0,SSW,6.9,-,N/A,,Overcast,200,2013-08-06 13:15:00
8:35 AM,70.3,67.3,90,29.91,4.0,SSW,6.9,-,N/A,,Overcast,210,2013-08-06 13:35:00
9:15 AM,72.1,68.5,88,29.90,5.0,SSW,6.9,-,N/A,,Mostly Cloudy,210,2013-08-06 14:15:00
9:35 AM,73.2,68.7,86,29.90,5.0,West,3.5,-,N/A,,Scattered Clouds,260,2013-08-06 14:35:00
9:55 AM,74.7,69.1,83,29.90,5.0,WSW,4.6,-,N/A,,Haze,240,2013-08-06 14:55:00
10:15 AM,75.9,70.2,82,29.91,7.0,SSW,3.5,-,N/A,,Scattered Clouds,210,2013-08-06 15:15:00
10:35 AM,77.5,70.9,80,29.91,10.0,WSW,4.6,-,N/A,,Scattered Clouds,240,2013-08-06 15:35:00
10:55 AM,77.0,70.3,80,29.91,10.0,SW,3.5,-,N/A,,Mostly Cloudy,220,2013-08-06 15:55:00
11:15 AM,77.9,70.7,78,29.91,10.0,West,3.5,-,N/A,,Scattered Clouds,270,2013-08-06 16:15:00
11:35 AM,78.1,71.2,79,29.90,10.0,SSW,6.9,-,N/A,,Scattered Clouds,210,2013-08-06 16:35:00
11:55 AM,78.8,71.2,78,29.90,10.0,SW,4.6,-,N/A,,Scattered Clouds,230,2013-08-06 16:55:00
12:15 PM,79.7,71.8,77,29.90,10.0,SSW,8.1,-,N/A,,Clear,200,2013-08-06 17:15:00
12:35 PM,79.7,71.8,77,29.89,10.0,West,5.8,-,N/A,,Scattered Clouds,260,2013-08-06 17:35:00
12:55 PM,79.3,71.2,76,29.88,10.0,Calm,Calm,-,N/A,,Scattered Clouds,0,2013-08-06 17:55:00
1:15 PM,81.1,71.8,73,29.88,10.0,West,3.5,-,N/A,,Scattered Clouds,280,2013-08-06 18:15:00
1:35 PM,80.6,72.1,75,29.88,10.0,SW,4.6,-,N/A,,Mostly Cloudy,220,2013-08-06 18:35:00
1:55 PM,81.1,72.1,74,29.87,10.0,SSE,3.5,-,N/A,,Scattered Clouds,160,2013-08-06 18:55:00
2:35 PM,83.1,72.1,69,29.85,10.0,SSW,5.8,-,N/A,,Clear,210,2013-08-06 19:35:00
2:55 PM,83.8,72.1,68,29.85,10.0,SSW,6.9,-,N/A,,Clear,200,2013-08-06 19:55:00
3:15 PM,84.2,73.2,69,29.84,10.0,SSW,5.8,-,N/A,,Clear,210,2013-08-06 20:15:00
3:35 PM,84.6,72.0,66,29.84,10.0,SSW,5.8,-,N/A,,Clear,210,2013-08-06 20:35:00
3:55 PM,83.5,70.9,66,29.84,10.0,SSW,5.8,-,N/A,,Clear,200,2013-08-06 20:55:00
4:15 PM,83.1,71.4,68,29.84,10.0,South,5.8,-,N/A,,Clear,180,2013-08-06 21:15:00
4:35 PM,83.3,71.6,68,29.84,10.0,South,5.8,-,N/A,,Clear,180,2013-08-06 21:35:00
5:15 PM,82.0,72.7,73,29.85,10.0,SSW,3.5,-,N/A,,Clear,210,2013-08-06 22:15:00
5:35 PM,81.9,72.5,73,29.85,10.0,SSE,6.9,-,N/A,,Clear,160,2013-08-06 22:35:00
5:55 PM,81.7,72.9,74,29.85,10.0,South,4.6,-,N/A,,Clear,170,2013-08-06 22:55:00
6:15 PM,81.9,72.7,74,29.85,10.0,South,4.6,-,N/A,,Mostly Cloudy,170,2013-08-06 23:15:00
6:35 PM,82.6,72.7,72,29.85,10.0,South,6.9,-,N/A,,Mostly Cloudy,170,2013-08-06 23:35:00
6:55 PM,81.9,72.7,74,29.85,10.0,South,4.6,-,N/A,,Scattered Clouds,170,2013-08-06 23:55:00
7:15 PM,80.8,72.9,77,29.85,10.0,South,5.8,-,N/A,,Clear,170,2013-08-07 00:15:00
7:35 PM,79.7,72.7,79,29.84,10.0,SSE,3.5,-,N/A,,Scattered Clouds,150,2013-08-07 00:35:00
7:55 PM,79.3,73.4,82,29.85,10.0,SSE,3.5,-,N/A,,Mostly Cloudy,150,2013-08-07 00:55:00
8:15 PM,77.5,72.5,84,29.85,10.0,South,5.8,-,N/A,,Scattered Clouds,170,2013-08-07 01:15:00
8:35 PM,77.0,71.8,84,29.85,10.0,South,4.6,-,N/A,,Clear,180,2013-08-07 01:35:00
8:55 PM,76.3,71.8,86,29.85,10.0,South,4.6,-,N/A,,Clear,170,2013-08-07 01:55:00
9:15 PM,76.1,71.6,86,29.86,10.0,South,3.5,-,N/A,,Clear,170,2013-08-07 02:15:00
9:35 PM,75.9,71.6,86,29.87,10.0,South,3.5,-,N/A,,Clear,190,2013-08-07 02:35:00
9:55 PM,75.9,71.6,86,29.87,10.0,Calm,Calm,-,N/A,,Clear,0,2013-08-07 02:55:00
10:15 PM,75.7,71.2,86,29.87,10.0,South,3.5,-,N/A,,Clear,190,2013-08-07 03:15:00
10:35 PM,75.4,71.2,87,29.87,10.0,Calm,Calm,-,N/A,,Clear,0,2013-08-07 03:35:00
10:55 PM,75.2,71.1,87,29.86,10.0,South,3.5,-,N/A,,Clear,170,2013-08-07 03:55:00
11:15 PM,75.0,71.1,87,29.86,10.0,South,3.5,-,N/A,,Clear,190,2013-08-07 04:15:00
11:35 PM,75.2,71.1,87,29.85,7.0,South,3.5,-,N/A,,Clear,190,2013-08-07 04:35:00
11:55 PM,75.4,71.4,87,29.85,7.0,SSW,4.6,-,N/A,,Clear,200,2013-08-07 04:55:00